Simultaneous Nadir Overpasses (SNOs) Predictions

Prediction of SNOs between GOES-16 and TERRA Satellite Orbit:

Table of predicted SNOs for the next 14.0 days since TLE Epoch: 12/9/2017
Index Date Time (GOES-16) GOES-16 Lat,Lon TERRA Lat,Lon Distance(km) Time Diff (sec)
1 12/10/2017 15:36:18 0.03, -76.28 0.13, -76.79 57.98 80
2 12/12/2017 15:23:56 0.03, -73.62 0.06, -73.70 9.74 80
3 12/14/2017 15:14:16 0.02, -70.97 -0.07, -70.63 39.37 80
4 12/16/2017 15:01:54 0.02, -68.33 -0.16, -67.55 88.84 80
5 12/18/2017 14:49:32 0.02, -65.70 -0.25, -64.47 139.13 80
6 12/20/2017 14:37:10 0.03, -63.06 -0.36, -61.40 190.19 80
7 12/21/2017 02:55:50 -0.03, -62.36 -0.89, -66.55 476.44 80
8 12/22/2017 14:24:47 0.03, -60.44 -0.41, -58.31 241.93 80




NCC Satellite Simultaneous Nadir Overpasses (SNOs) Prediction Service
